NOAA 16 DEB

Satellite information

Favourite Embed

Satellite Type and Status

DEBRISIN ORBIT

Key statistics

Satellite NOAA 16 DEB at a glance.

Uptime

9053

Days in orbit

Revolutions

≈ 14.1

Per day

Orbit

SSO

Sun Synchronous Orbit

Inclination

98.8

Latest

Satellite identification and parameters

Extended collection of information and parameters for NOAA 16 DEB.

Object identification

Identified? True

Debris? True

Object name: NOAA 16 DEB

International designator: 2000-055GK

Object number (NORAD): 41283

Object ID (CCSDS): 41283

Country: UNITED STATES OF AMERICA (US)

Current information (Y/N): Y

RCS size: SMALL

Orbital parameters

Period: 102.317 minutes

Inclination: 98.8141 deg

SMA: 7246.434 km

Apoapsis: 910.921 km

Periapsis: 825.678 km

RAAN: 166.2691 deg

Eccentricy: 0.0058817

Argument of periapsis: 259.9488 deg

Mean anomaly: 99.5041 deg

Mean motion: 14.07395681 rev/day

Mean motion (dot): 0.00001699 rev/day2

B* drag term: 0.0010199 1/REarth

Two-line elements (TLE)

Creation date: July 4, 2025, 6:39 p.m.

Reference frame: TEME

Reference center: EARTH

Epoch: July 4, 2025, 4:11 a.m. UTC

TLE line 0: 0 NOAA 16 DEB

TLE line 1: 1 41283U 00055GK 25185.17474288 .00001699 00000-0 10199-2 0 9997

TLE line 2: 2 41283 98.8141 166.2691 0058817 259.9488 99.5041 14.07395681487658

Live tracking on map

Real-time ground track for satellite NOAA 16 DEB.

In-orbit conjunctions

A list of the most updated potential collisions computed for object NOAA 16 DEB.

Target Orbit TCA Probability of collision Miss distance Type
COSMOS 2333 LEO 2025-02-18 16:23:27 0.0003035797 157.0 (m) PAYLOAD
METEOR 1-27 LEO 2024-08-24 00:17:00 0.0001063837 375.0 (m) PAYLOAD

Associated space launch

The NOAA K, L and M POES satellites begin the fifth generation of improved environmental monitoring in support of NOAA missions. The instrument payload has significant improvements and additions/deletions. The instrument changes have effected the spacecraft subsystems and data formats.

NOAA 16 DEB was lifted into orbit during the mission ‘Titan II SLV | NOAA 16’, on board a Titan II SLV space rocket.

The launch took place on Sept. 21, 2000, 10:22 a.m. from Space Launch Complex 4W.

For more information about the launch, click the button.

Launch to space Titan II SLV | NOAA 16
Titan II SLV | NOAA 16

Agency: N/A

Status: Launch Successful

Launch date: Sept. 21, 2000, 10:22 a.m. UTC

Rocket: Titan II SLV

Launch pad: Space Launch Complex 4W

Location: Vandenberg SFB, CA, USA

...

Latest news about this satellite

There are no fresh news available about this satellite. Check back as we update our databases every day.


Newsletter sign-up

Weekly statistics, charts and insights to help you stay on top of the space industry.